SCP
0 0 1 1 0 0 0 0 0 0 0 0 0 0 0 0 0 0 0 0 0 0 0 0 0 0 0 0 0 0 0 0 0 0 0 0 0 0 0 0 0 0 0
0 0 1 1 0 0 0 0 0 0 0 0 0 0 0 0 0 0 0 0 0 0 0 0 0 0 0 0 0 0 0 0 0 0 0 0 0 0 0 0 0 0 0
0 0 0 1 0 0 0 0 0 0 0 0 0 0 0 0 0 0 0 0 0 0 0 0 0 0 0 0 0 0 0 0 0 0 0 0 0 0 0 0 0 0 0
1 0 0 1 1 1 0 0 0 0 0 0 0 0 0 0 0 0 0 0 0 0 0 0 0 0 0 0 0 0 0 0 0 0 0 0 0 0 0 0 0 0 0
1 1 0 1 1 1 1 0 0 0 0 0 0 0 0 0 0 0 0 0 0 0 0 0 0 0 0 0 0 0 0 0 0 0 0 0 0 0 1 0 0 0 0
1 1 1 1 1 1 1 1 0 0 0 0 0 0 0 0 0 0 0 0 0 0 0 0 0 0 0 0 0 0 0 0 0 0 0 0 0 1 1 0 0 0 0
0 1 1 1 1 1 1 1 0 0 0 0 0 0 0 0 0 0 0 0 0 0 0 0 0 0 0 0 0 0 0 0 0 0 0 0 0 1 0 0 1 1 0
0 0 1 1 1 1 1 0 0 0 0 0 0 0 0 0 0 0 0 0 0 0 0 0 0 0 0 0 0 0 0 0 0 0 0 0 0 0 0 0 0 1 1
0 0 4 2 2 1 1 0 1 1 1 1 1 1 1 1 1 1 1 0 0 0 0 0 0 0 0 0 0 0 0 0 0 0 0 0 0 1 0 0 0 1 1
0 0 5 3 2 1 1 1 1 1 1 1 1 1 1 1 1 1 1 1 0 0 0 0 0 0 0 0 0 0 0 0 0 0 0 0 0 0 0 0 0 1 1
0 0 2 4 1 2 1 1 1 1 1 2 2 2 2 1 0 1 1 1 1 0 0 0 0 0 0 0 0 0 0 0 0 0 0 0 1 0 0 0 0 0 1
0 0 1 4 2 2 1 1 1 1 2 2 1 1 2 1 1 0 1 1 0 0 0 0 0 0 0 0 0 0 0 0 0 0 0 1 0 0 0 0 0 0 1
0 0 0 4 3 3 2 1 2 1 2 2 1 2 2 2 2 1 1 1 1 0 0 0 0 0 0 0 0 0 0 0 0 -0 0 0 0 0 0 0 0 0 1
0 0 1 3 4 4 3 2 2 2 2 2 1 2 2 3 2 1 1 1 1 1 0 0 0 0 0 0 0 0 0 0 0 -0 0 0 0 0 0 0 0 0 0
0 0 0 2 4 4 7 2 2 3 2 1 1 2 2 2 1 1 1 2 1 1 1 1 0 0 0 0 0 0 0 0 0 0 0 0 0 0 0 0 0 0 0
0 0 1 3 2 3 3 6 3 5 3 2 3 3 2 2 2 2 2 2 2 1 0 0 0 0 0 0 0 0 0 0 0 0 0 0 0 0 0 0 0 0 0
0 1 3 4 4 4 3 3 7 5 6 4 4 4 2 2 3 2 2 2 2 1 1 0 0 0 0 0 0 0 0 0 0 0 0 0 0 0 0 0 0 0 0
1 1 4 1 5 5 5 4 5 4 4 4 3 3 2 4 3 2 2 1 2 2 1 1 0 0 0 0 0 0 0 0 0 0 0 0 0 0 0 0 0 0 0
2 3 4 3 6 5 5 5 4 8 4 4 3 2 2 2 2 2 2 1 2 2 1 1 0 0 0 0 0 0 0 0 0 0 0 0 0 0 0 0 0 0 0
2 3 4 5 8 5 5 6 4 6 5 3 3 3 3 3 2 2 2 2 2 1 1 0 0 0 0 0 0 0 0 0 0 0 0 0 0 0 0 0 0 0 0
2 4 5 7 9 5 6 4 3 3 3 2 3 3 3 3 3 3 2 1 1 1 1 0 0 0 0 0 0 0 0 0 0 0 0 0 0 0 0 0 0 0 0
2 3 4 6 6 5 5 3 3 2 1 1 2 2 3 2 2 2 1 1 1 1 0 0 0 0 0 0 0 0 0 0 0 0 0 0 0 0 0 0 0 0 0
1 1 2 3 3 4 4 3 3 2 2 1 2 3 2 2 2 1 1 1 0 0 0 0 0 0 0 0 0 0 0 0 0 0 0 0 0 0 0 0 0 0 0
1 1 1 2 2 4 4 2 2 1 2 1 1 2 3 2 1 1 0 0 0 0 0 0 0 0 0 0 0 0 0 0 0 0 0 0 0 0 0 0 0 0 0
1 1 1 1 2 2 2 2 1 1 1 2 2 2 2 1 1 0 0 0 0 0 0 0 0 0 0 0 0 0 -0 0 0 0 0 0 0 0 0 0 0 0 0
0 0 1 1 1 1 2 1 1 1 2 2 1 1 1 1 1 0 0 0 0 0 0 0 0 0 -0 -0 0 -0 0 0 -0 0 0 0 0 0 0 0 0 0 0
Wind_Speed_500mb
11 22 24 24 22 19 14 13 9 5 2 3 7 9 8 9 11 14 14 13 14 14 13 14 17 20 21 22 22 22 24 27 30 30 26 26 24 22 20 14 10 12 11
4 20 25 25 22 21 19 17 14 8 5 2 5 7 9 11 11 13 16 16 13 14 14 11 11 15 17 19 21 23 22 24 27 31 30 25 22 18 19 16 14 15 15
3 21 28 28 24 24 23 21 18 13 8 4 2 5 8 10 12 13 13 16 15 14 14 15 12 10 13 15 17 19 21 22 24 27 31 27 21 18 18 20 20 18 18
10 18 26 33 29 28 27 25 22 17 12 7 1 4 8 10 12 15 16 14 15 17 16 14 16 15 11 11 14 16 18 20 22 24 24 24 17 21 26 21 24 25 20
17 20 35 35 32 32 30 28 25 20 15 9 3 3 7 10 12 16 18 16 14 15 19 18 17 17 14 17 14 14 17 19 19 19 16 11 18 17 25 24 21 27 23
28 24 34 39 34 35 33 31 28 24 19 14 7 4 7 11 12 15 18 17 16 18 21 23 25 22 21 22 23 19 19 19 17 15 6 8 20 21 21 24 21 23 29
23 22 24 39 39 37 37 33 31 27 22 18 12 9 10 13 15 17 18 20 21 23 24 26 29 29 28 28 30 29 27 21 19 13 11 11 21 30 38 35 26 23 26
32 36 28 31 43 44 41 39 35 31 27 23 19 18 18 18 19 22 22 21 26 29 32 34 36 35 32 35 34 35 32 30 24 15 13 24 30 34 32 32 35 27 25
27 46 40 34 44 51 51 47 43 38 34 30 27 27 27 27 27 27 28 27 32 36 36 36 40 43 44 41 36 36 38 34 31 25 24 23 28 33 37 34 33 32 27
30 46 49 39 38 52 59 59 54 47 42 39 36 36 34 36 32 31 29 28 28 29 36 37 36 38 41 42 45 46 41 40 36 33 33 24 31 26 35 29 26 33 29
37 28 47 47 38 40 59 66 61 56 55 51 47 45 40 40 35 24 29 38 37 41 43 41 34 28 29 33 37 38 35 41 40 30 29 28 36 39 32 29 27 33 31
41 36 49 52 49 51 44 62 64 66 64 61 54 51 45 38 28 16 32 36 34 30 31 32 18 22 22 25 17 13 23 21 30 31 32 38 40 47 35 30 29 35 35
43 44 37 56 53 55 52 47 55 53 63 66 59 54 46 30 28 24 24 29 34 30 28 25 21 22 14 3 10 18 22 19 13 31 31 33 37 36 33 35 30 37 39
42 43 40 47 51 57 60 53 64 61 54 48 54 47 40 37 35 26 23 23 25 29 29 19 24 27 18 16 22 16 27 25 29 32 44 37 29 25 31 34 34 36 40
40 39 42 38 49 57 69 57 63 57 44 38 33 38 42 37 26 22 26 36 38 33 23 32 30 32 28 34 34 39 33 34 31 28 36 41 48 35 33 35 36 36 40
40 41 36 38 49 58 70 69 66 61 50 47 48 45 43 36 29 34 35 38 42 31 33 33 36 37 43 35 30 26 34 39 40 29 39 37 35 34 23 32 34 34 37
40 42 41 47 48 63 73 65 64 72 54 57 52 42 41 37 32 35 36 40 36 37 35 40 39 38 35 34 30 21 25 32 35 41 37 35 31 32 19 23 31 33 35
51 43 45 45 48 64 75 65 69 54 66 41 47 47 48 45 36 33 30 37 32 45 42 44 41 40 35 31 29 25 30 27 33 32 42 35 32 31 19 15 19 28 33
54 46 53 48 50 65 73 66 62 48 51 55 35 34 34 32 27 24 34 33 38 44 42 40 37 35 31 28 26 23 32 26 34 39 31 38 41 29 28 29 21 24 31
62 48 48 52 53 62 66 58 51 53 46 39 42 34 30 27 24 28 37 41 40 40 36 36 35 33 31 29 25 24 25 33 29 30 32 28 33 43 32 27 37 25 30
45 43 45 44 53 61 62 48 53 52 47 42 36 33 33 32 28 29 36 38 37 37 34 33 33 28 28 27 29 28 30 29 35 34 36 39 35 31 30 32 22 22 34
47 45 49 49 59 60 57 44 48 45 34 36 34 31 33 29 25 30 33 34 36 35 32 28 29 27 29 31 31 23 14 30 41 44 37 35 34 33 33 41 27 26 33
36 35 39 49 57 54 45 45 41 39 31 30 29 30 33 31 25 31 34 30 30 25 24 22 23 28 31 30 33 28 14 16 35 39 42 38 35 39 44 38 35 33 34
28 26 29 42 52 52 45 48 42 45 31 26 21 28 23 15 20 22 27 32 23 18 17 20 23 29 31 34 31 39 32 16 20 22 45 39 38 45 40 40 39 35 44
29 28 36 47 45 52 47 44 44 35 28 19 20 19 19 26 31 25 21 14 14 15 16 18 20 23 24 27 30 27 38 25 24 18 30 50 48 39 33 36 36 37 32
33 37 45 42 51 50 45 39 38 28 22 20 23 15 18 24 26 19 11 8 17 13 10 9 7 8 11 13 18 24 29 15 22 23 21 37 42 30 24 28 28 29 29
Wind_Direction_500mb
176 157 159 171 177 171 161 158 166 174 140 24 9 357 338 319 309 303 301 292 286 286 279 270 270 272 271 271 269 260 254 247 242 240 236 233 239 243 249 229 217 196 186
210 164 168 171 173 177 173 164 165 180 166 103 32 1 342 328 315 303 301 296 291 284 283 281 280 280 279 276 274 272 263 255 246 241 239 235 239 246 253 256 230 219 213
192 175 179 176 180 180 176 171 168 173 170 151 55 358 338 329 317 309 297 291 289 287 287 290 281 270 281 284 280 277 275 270 260 248 240 234 233 257 263 259 249 229 231
237 188 192 185 185 184 181 179 175 178 182 179 154 347 333 330 321 312 303 292 278 276 273 281 295 298 287 283 288 287 282 274 269 262 250 229 232 272 255 257 251 240 227
227 205 201 195 191 189 187 185 182 182 187 185 187 323 325 318 315 312 302 294 282 267 282 279 284 286 268 279 276 278 282 279 274 268 252 229 193 273 228 238 248 234 228
225 224 203 200 198 194 192 192 189 190 194 199 205 257 309 313 312 304 297 288 275 273 274 277 280 285 254 256 262 269 268 268 270 274 257 208 200 246 234 248 250 233 225
203 245 231 206 204 202 200 200 198 200 204 213 224 254 298 315 316 304 293 284 282 281 281 274 271 270 261 256 266 267 256 260 262 240 230 240 246 244 251 255 248 241 228
223 218 254 217 218 216 211 209 209 209 215 225 241 261 281 302 314 306 293 287 284 280 279 275 270 269 260 262 259 261 261 256 258 246 228 216 251 247 252 255 246 240 227
242 212 221 232 217 224 222 220 217 218 223 233 247 261 274 285 298 305 300 295 285 278 281 277 275 272 266 260 255 256 262 260 253 234 224 242 254 249 253 263 256 229 221
300 221 208 216 222 227 225 223 221 223 227 234 244 257 268 275 291 298 300 310 300 298 302 291 283 275 270 262 255 256 253 257 257 250 219 235 251 247 243 255 263 221 213
297 278 215 210 229 239 233 228 224 223 229 232 239 250 261 271 287 296 306 299 296 308 307 298 288 280 275 267 262 262 262 260 260 251 235 222 249 251 252 257 267 228 211
285 287 222 215 214 245 233 236 226 226 230 234 238 247 253 265 276 259 263 283 298 308 313 322 307 302 282 265 267 270 261 277 248 225 239 245 234 245 249 261 265 229 211
298 296 266 209 223 233 233 223 237 228 233 236 238 244 251 257 266 277 277 292 294 294 306 313 308 310 311 337 258 284 267 253 269 204 234 226 229 229 251 266 263 230 213
295 288 288 224 218 229 227 209 231 232 239 233 232 237 235 241 252 254 259 239 277 289 289 272 288 294 265 237 256 225 262 273 230 228 233 240 231 232 261 264 262 231 218
286 283 270 230 229 234 219 214 220 227 231 230 223 232 239 243 247 251 256 257 255 248 258 270 248 249 241 253 261 251 238 236 224 214 232 231 245 247 251 269 257 231 221
294 281 262 247 232 249 233 218 214 214 218 221 208 223 239 250 242 235 245 261 270 281 250 249 253 244 248 256 252 245 243 238 244 222 221 238 243 244 265 264 244 230 222
292 274 258 242 231 245 242 221 210 218 210 214 209 216 233 244 249 240 240 255 276 264 255 245 248 251 253 255 250 246 252 243 236 222 211 235 254 246 268 262 243 228 222
286 264 256 242 239 239 238 229 208 211 210 218 224 218 229 237 254 247 251 259 259 267 267 258 258 256 252 239 241 241 250 246 239 231 219 219 241 235 259 258 244 229 222
276 262 249 245 229 232 229 228 211 210 219 209 223 220 236 253 272 269 268 273 264 271 271 264 260 257 248 232 223 250 239 240 229 222 227 236 227 223 246 255 239 218 218
279 256 247 237 218 227 224 220 209 209 219 208 213 219 224 242 250 248 265 279 273 271 271 263 260 256 247 230 228 225 233 243 231 223 217 211 209 223 225 256 228 219 208
247 227 226 221 208 215 214 205 197 205 210 200 214 219 223 230 239 263 269 270 275 275 274 266 257 247 237 223 234 241 244 242 217 214 212 215 223 220 214 241 218 214 207
240 242 232 221 203 208 203 201 196 198 218 204 216 224 236 246 258 268 264 271 275 277 276 265 252 245 235 232 235 241 245 238 217 210 205 208 218 221 217 219 230 234 215
235 241 225 209 201 194 197 185 190 192 203 196 204 208 243 258 257 259 276 283 284 276 270 256 252 238 242 246 238 220 196 220 212 202 199 206 215 221 208 219 209 223 223
217 220 193 180 185 186 182 177 186 187 185 204 221 229 223 240 250 284 280 285 283 272 269 257 256 255 250 243 242 231 220 181 188 202 205 209 201 218 223 207 209 226 214
186 175 176 180 181 173 171 183 181 180 191 174 187 239 238 258 271 282 274 293 283 279 270 271 260 258 252 244 235 233 220 236 228 205 200 211 217 218 210 206 215 221 229
156 164 172 176 158 174 164 179 180 187 174 190 200 231 251 262 276 278 231 304 291 289 281 270 249 232 220 208 222 221 219 210 148 218 233 196 201 199 203 207 210 208 200
Wind_Speed_850mb
11 22 24 24 22 19 14 13 9 5 2 3 7 9 8 9 11 14 14 13 14 14 13 14 17 20 21 22 22 22 24 27 30 30 26 26 24 22 20 14 10 12 11
4 20 25 25 22 21 19 17 14 8 5 2 5 7 9 11 11 13 16 16 13 14 14 11 11 15 17 19 21 23 22 24 27 31 30 25 22 18 19 16 14 15 15
3 21 28 28 24 24 23 21 18 13 8 4 2 5 8 10 12 13 13 16 15 14 14 15 12 10 13 15 17 19 21 22 24 27 31 27 21 18 18 20 20 18 18
10 18 26 33 29 28 27 25 22 17 12 7 1 4 8 10 12 15 16 14 15 17 16 14 16 15 11 11 14 16 18 20 22 24 24 24 17 21 26 21 24 25 20
17 20 35 35 32 32 30 28 25 20 15 9 3 3 7 10 12 16 18 16 14 15 19 18 17 17 14 17 14 14 17 19 19 19 16 11 18 17 25 24 21 27 23
28 24 34 39 34 35 33 31 28 24 19 14 7 4 7 11 12 15 18 17 16 18 21 23 25 22 21 22 23 19 19 19 17 15 6 8 20 21 21 24 21 23 29
23 22 24 39 39 37 37 33 31 27 22 18 12 9 10 13 15 17 18 20 21 23 24 26 29 29 28 28 30 29 27 21 19 13 11 11 21 30 38 35 26 23 26
32 36 28 31 43 44 41 39 35 31 27 23 19 18 18 18 19 22 22 21 26 29 32 34 36 35 32 35 34 35 32 30 24 15 13 24 30 34 32 32 35 27 25
27 46 40 34 44 51 51 47 43 38 34 30 27 27 27 27 27 27 28 27 32 36 36 36 40 43 44 41 36 36 38 34 31 25 24 23 28 33 37 34 33 32 27
30 46 49 39 38 52 59 59 54 47 42 39 36 36 34 36 32 31 29 28 28 29 36 37 36 38 41 42 45 46 41 40 36 33 33 24 31 26 35 29 26 33 29
37 28 47 47 38 40 59 66 61 56 55 51 47 45 40 40 35 24 29 38 37 41 43 41 34 28 29 33 37 38 35 41 40 30 29 28 36 39 32 29 27 33 31
41 36 49 52 49 51 44 62 64 66 64 61 54 51 45 38 28 16 32 36 34 30 31 32 18 22 22 25 17 13 23 21 30 31 32 38 40 47 35 30 29 35 35
43 44 37 56 53 55 52 47 55 53 63 66 59 54 46 30 28 24 24 29 34 30 28 25 21 22 14 3 10 18 22 19 13 31 31 33 37 36 33 35 30 37 39
42 43 40 47 51 57 60 53 64 61 54 48 54 47 40 37 35 26 23 23 25 29 29 19 24 27 18 16 22 16 27 25 29 32 44 37 29 25 31 34 34 36 40
40 39 42 38 49 57 69 57 63 57 44 38 33 38 42 37 26 22 26 36 38 33 23 32 30 32 28 34 34 39 33 34 31 28 36 41 48 35 33 35 36 36 40
40 41 36 38 49 58 70 69 66 61 50 47 48 45 43 36 29 34 35 38 42 31 33 33 36 37 43 35 30 26 34 39 40 29 39 37 35 34 23 32 34 34 37
40 42 41 47 48 63 73 65 64 72 54 57 52 42 41 37 32 35 36 40 36 37 35 40 39 38 35 34 30 21 25 32 35 41 37 35 31 32 19 23 31 33 35
51 43 45 45 48 64 75 65 69 54 66 41 47 47 48 45 36 33 30 37 32 45 42 44 41 40 35 31 29 25 30 27 33 32 42 35 32 31 19 15 19 28 33
54 46 53 48 50 65 73 66 62 48 51 55 35 34 34 32 27 24 34 33 38 44 42 40 37 35 31 28 26 23 32 26 34 39 31 38 41 29 28 29 21 24 31
62 48 48 52 53 62 66 58 51 53 46 39 42 34 30 27 24 28 37 41 40 40 36 36 35 33 31 29 25 24 25 33 29 30 32 28 33 43 32 27 37 25 30
45 43 45 44 53 61 62 48 53 52 47 42 36 33 33 32 28 29 36 38 37 37 34 33 33 28 28 27 29 28 30 29 35 34 36 39 35 31 30 32 22 22 34
47 45 49 49 59 60 57 44 48 45 34 36 34 31 33 29 25 30 33 34 36 35 32 28 29 27 29 31 31 23 14 30 41 44 37 35 34 33 33 41 27 26 33
36 35 39 49 57 54 45 45 41 39 31 30 29 30 33 31 25 31 34 30 30 25 24 22 23 28 31 30 33 28 14 16 35 39 42 38 35 39 44 38 35 33 34
28 26 29 42 52 52 45 48 42 45 31 26 21 28 23 15 20 22 27 32 23 18 17 20 23 29 31 34 31 39 32 16 20 22 45 39 38 45 40 40 39 35 44
29 28 36 47 45 52 47 44 44 35 28 19 20 19 19 26 31 25 21 14 14 15 16 18 20 23 24 27 30 27 38 25 24 18 30 50 48 39 33 36 36 37 32
33 37 45 42 51 50 45 39 38 28 22 20 23 15 18 24 26 19 11 8 17 13 10 9 7 8 11 13 18 24 29 15 22 23 21 37 42 30 24 28 28 29 29
Wind_Direction_850mb
176 157 159 171 177 171 161 158 166 174 140 24 9 357 338 319 309 303 301 292 286 286 279 270 270 272 271 271 269 260 254 247 242 240 236 233 239 243 249 229 217 196 186
210 164 168 171 173 177 173 164 165 180 166 103 32 1 342 328 315 303 301 296 291 284 283 281 280 280 279 276 274 272 263 255 246 241 239 235 239 246 253 256 230 219 213
192 175 179 176 180 180 176 171 168 173 170 151 55 358 338 329 317 309 297 291 289 287 287 290 281 270 281 284 280 277 275 270 260 248 240 234 233 257 263 259 249 229 231
237 188 192 185 185 184 181 179 175 178 182 179 154 347 333 330 321 312 303 292 278 276 273 281 295 298 287 283 288 287 282 274 269 262 250 229 232 272 255 257 251 240 227
227 205 201 195 191 189 187 185 182 182 187 185 187 323 325 318 315 312 302 294 282 267 282 279 284 286 268 279 276 278 282 279 274 268 252 229 193 273 228 238 248 234 228
225 224 203 200 198 194 192 192 189 190 194 199 205 257 309 313 312 304 297 288 275 273 274 277 280 285 254 256 262 269 268 268 270 274 257 208 200 246 234 248 250 233 225
203 245 231 206 204 202 200 200 198 200 204 213 224 254 298 315 316 304 293 284 282 281 281 274 271 270 261 256 266 267 256 260 262 240 230 240 246 244 251 255 248 241 228
223 218 254 217 218 216 211 209 209 209 215 225 241 261 281 302 314 306 293 287 284 280 279 275 270 269 260 262 259 261 261 256 258 246 228 216 251 247 252 255 246 240 227
242 212 221 232 217 224 222 220 217 218 223 233 247 261 274 285 298 305 300 295 285 278 281 277 275 272 266 260 255 256 262 260 253 234 224 242 254 249 253 263 256 229 221
300 221 208 216 222 227 225 223 221 223 227 234 244 257 268 275 291 298 300 310 300 298 302 291 283 275 270 262 255 256 253 257 257 250 219 235 251 247 243 255 263 221 213
297 278 215 210 229 239 233 228 224 223 229 232 239 250 261 271 287 296 306 299 296 308 307 298 288 280 275 267 262 262 262 260 260 251 235 222 249 251 252 257 267 228 211
285 287 222 215 214 245 233 236 226 226 230 234 238 247 253 265 276 259 263 283 298 308 313 322 307 302 282 265 267 270 261 277 248 225 239 245 234 245 249 261 265 229 211
298 296 266 209 223 233 233 223 237 228 233 236 238 244 251 257 266 277 277 292 294 294 306 313 308 310 311 337 258 284 267 253 269 204 234 226 229 229 251 266 263 230 213
295 288 288 224 218 229 227 209 231 232 239 233 232 237 235 241 252 254 259 239 277 289 289 272 288 294 265 237 256 225 262 273 230 228 233 240 231 232 261 264 262 231 218
286 283 270 230 229 234 219 214 220 227 231 230 223 232 239 243 247 251 256 257 255 248 258 270 248 249 241 253 261 251 238 236 224 214 232 231 245 247 251 269 257 231 221
294 281 262 247 232 249 233 218 214 214 218 221 208 223 239 250 242 235 245 261 270 281 250 249 253 244 248 256 252 245 243 238 244 222 221 238 243 244 265 264 244 230 222
292 274 258 242 231 245 242 221 210 218 210 214 209 216 233 244 249 240 240 255 276 264 255 245 248 251 253 255 250 246 252 243 236 222 211 235 254 246 268 262 243 228 222
286 264 256 242 239 239 238 229 208 211 210 218 224 218 229 237 254 247 251 259 259 267 267 258 258 256 252 239 241 241 250 246 239 231 219 219 241 235 259 258 244 229 222
276 262 249 245 229 232 229 228 211 210 219 209 223 220 236 253 272 269 268 273 264 271 271 264 260 257 248 232 223 250 239 240 229 222 227 236 227 223 246 255 239 218 218
279 256 247 237 218 227 224 220 209 209 219 208 213 219 224 242 250 248 265 279 273 271 271 263 260 256 247 230 228 225 233 243 231 223 217 211 209 223 225 256 228 219 208
247 227 226 221 208 215 214 205 197 205 210 200 214 219 223 230 239 263 269 270 275 275 274 266 257 247 237 223 234 241 244 242 217 214 212 215 223 220 214 241 218 214 207
240 242 232 221 203 208 203 201 196 198 218 204 216 224 236 246 258 268 264 271 275 277 276 265 252 245 235 232 235 241 245 238 217 210 205 208 218 221 217 219 230 234 215
235 241 225 209 201 194 197 185 190 192 203 196 204 208 243 258 257 259 276 283 284 276 270 256 252 238 242 246 238 220 196 220 212 202 199 206 215 221 208 219 209 223 223
217 220 193 180 185 186 182 177 186 187 185 204 221 229 223 240 250 284 280 285 283 272 269 257 256 255 250 243 242 231 220 181 188 202 205 209 201 218 223 207 209 226 214
186 175 176 180 181 173 171 183 181 180 191 174 187 239 238 258 271 282 274 293 283 279 270 271 260 258 252 244 235 233 220 236 228 205 200 211 217 218 210 206 215 221 229
156 164 172 176 158 174 164 179 180 187 174 190 200 231 251 262 276 278 231 304 291 289 281 270 249 232 220 208 222 221 219 210 148 218 233 196 201 199 203 207 210 208 200